Time,TemperatureF,DewpointF,PressureIn,WindDirection,WindDirectionDegrees,WindSpeedMPH,WindSpeedGustMPH,Humidity,HourlyPrecipIn,Conditions,Clouds,dailyrainin,SoftwareType,DateUTC
2013-01-06 00:05:00,42.4,41.9,30.00,NW,315,1.7,-999.0,98,-99.99,,,0.00,Acu-Link.com,2013-01-06 08:05:00,
2013-01-06 00:20:00,42.3,41.8,29.99,NW,315,0.0,-999.0,98,-99.99,,,0.00,Acu-Link.com,2013-01-06 08:20:00,
2013-01-06 00:35:00,42.1,41.6,30.00,SE,135,1.7,-999.0,98,-99.99,,,0.01,Acu-Link.com,2013-01-06 08:35:00,
2013-01-06 00:50:00,41.7,41.2,29.99,NW,315,0.0,-999.0,98,-99.99,,,0.01,Acu-Link.com,2013-01-06 08:50:00,
2013-01-06 01:09:00,41.7,41.2,30.00,SE,135,0.0,-999.0,98,-99.99,,,0.02,Acu-Link.com,2013-01-06 09:09:00,
2013-01-06 01:24:00,41.7,41.2,30.01,SE,135,0.0,-999.0,98,-99.99,,,0.05,Acu-Link.com,2013-01-06 09:24:00,
2013-01-06 01:39:00,41.7,41.2,30.01,East,90,1.7,-999.0,98,-99.99,,,0.06,Acu-Link.com,2013-01-06 09:39:00,
2013-01-06 01:54:00,41.9,41.4,30.01,South,180,0.0,-999.0,98,-99.99,,,0.07,Acu-Link.com,2013-01-06 09:54:00,
2013-01-06 02:10:00,41.9,41.4,30.01,South,180,0.0,-999.0,98,-99.99,,,0.09,Acu-Link.com,2013-01-06 10:10:00,
2013-01-06 02:25:00,41.9,41.4,30.01,SSE,157,1.1,-999.0,98,-99.99,,,0.11,Acu-Link.com,2013-01-06 10:25:00,
2013-01-06 02:40:00,41.9,41.4,30.01,SSW,202,0.0,-999.0,98,-99.99,,,0.13,Acu-Link.com,2013-01-06 10:40:00,
2013-01-06 02:55:00,41.7,41.2,30.01,ESE,112,0.0,-999.0,98,-99.99,,,0.14,Acu-Link.com,2013-01-06 10:55:00,
2013-01-06 03:10:00,41.7,41.2,30.01,SE,135,1.1,-999.0,98,-99.99,,,0.15,Acu-Link.com,2013-01-06 11:10:00,
2013-01-06 03:26:00,40.6,40.1,30.00,North,0,2.2,-999.0,98,-99.99,,,0.17,Acu-Link.com,2013-01-06 11:26:00,
2013-01-06 03:41:00,40.6,40.1,30.00,NW,315,0.0,-999.0,98,-99.99,,,0.17,Acu-Link.com,2013-01-06 11:41:00,
2013-01-06 03:56:00,41.5,41.0,30.00,SE,135,1.1,-999.0,98,-99.99,,,0.18,Acu-Link.com,2013-01-06 11:56:00,
2013-01-06 04:11:00,41.5,41.0,30.01,NE,45,0.0,-999.0,98,-99.99,,,0.18,Acu-Link.com,2013-01-06 12:11:00,
2013-01-06 04:26:00,41.5,41.0,30.01,East,90,0.0,-999.0,98,-99.99,,,0.20,Acu-Link.com,2013-01-06 12:26:00,
2013-01-06 04:42:00,41.5,41.0,30.01,ESE,112,0.0,-999.0,98,-99.99,,,0.21,Acu-Link.com,2013-01-06 12:42:00,
2013-01-06 04:57:00,41.4,40.9,30.01,SE,135,1.7,-999.0,98,-99.99,,,0.23,Acu-Link.com,2013-01-06 12:57:00,
2013-01-06 05:12:00,41.2,40.7,30.02,NNW,337,0.0,-999.0,98,-99.99,,,0.25,Acu-Link.com,2013-01-06 13:12:00,
2013-01-06 05:27:00,40.8,40.3,30.01,ESE,112,2.2,-999.0,98,-99.99,,,0.29,Acu-Link.com,2013-01-06 13:27:00,
2013-01-06 05:42:00,41.0,40.5,30.01,East,90,0.0,-999.0,98,-99.99,,,0.30,Acu-Link.com,2013-01-06 13:42:00,
2013-01-06 05:58:00,41.4,40.9,30.01,East,90,0.0,-999.0,98,-99.99,,,0.31,Acu-Link.com,2013-01-06 13:58:00,
2013-01-06 06:13:00,41.2,40.7,30.02,North,0,0.0,-999.0,98,-99.99,,,0.31,Acu-Link.com,2013-01-06 14:13:00,
2013-01-06 06:28:00,41.0,40.2,30.02,NW,315,0.0,-999.0,97,-99.99,,,0.32,Acu-Link.com,2013-01-06 14:28:00,
2013-01-06 06:43:00,40.6,38.2,30.02,NE,45,0.0,-999.0,91,-99.99,,,0.32,Acu-Link.com,2013-01-06 14:43:00,
2013-01-06 06:59:00,39.9,39.4,30.02,West,270,1.1,-999.0,98,-99.99,,,0.32,Acu-Link.com,2013-01-06 14:59:00,
2013-01-06 07:14:00,40.6,40.1,30.03,WNW,292,1.1,-999.0,98,-99.99,,,0.32,Acu-Link.com,2013-01-06 15:14:00,
2013-01-06 07:29:00,40.5,40.0,30.04,West,270,2.2,-999.0,98,-99.99,,,0.32,Acu-Link.com,2013-01-06 15:29:00,
2013-01-06 07:44:00,39.9,39.4,30.04,WNW,292,1.1,-999.0,98,-99.99,,,0.32,Acu-Link.com,2013-01-06 15:44:00,
2013-01-06 07:59:00,40.1,39.6,30.05,ESE,112,1.7,-999.0,98,-99.99,,,0.32,Acu-Link.com,2013-01-06 15:59:00,
2013-01-06 08:15:00,40.3,39.8,30.05,NW,315,0.0,-999.0,98,-99.99,,,0.33,Acu-Link.com,2013-01-06 16:15:00,
2013-01-06 08:30:00,41.2,39.6,30.05,East,90,1.1,-999.0,94,-99.99,,,0.33,Acu-Link.com,2013-01-06 16:30:00,
2013-01-06 08:45:00,41.5,40.7,30.06,NNW,337,1.7,-999.0,97,-99.99,,,0.34,Acu-Link.com,2013-01-06 16:45:00,
2013-01-06 09:00:00,42.3,41.0,30.06,NNE,22,2.2,-999.0,95,-99.99,,,0.34,Acu-Link.com,2013-01-06 17:00:00,
2013-01-06 09:15:00,41.0,40.5,30.07,ENE,67,1.7,-999.0,98,-99.99,,,0.34,Acu-Link.com,2013-01-06 17:15:00,
2013-01-06 09:31:00,41.5,41.0,30.07,WNW,292,0.0,-999.0,98,-99.99,,,0.34,Acu-Link.com,2013-01-06 17:31:00,
2013-01-06 09:46:00,42.6,42.1,30.09,East,90,0.0,-999.0,98,-99.99,,,0.34,Acu-Link.com,2013-01-06 17:46:00,
2013-01-06 10:01:00,42.8,42.3,30.09,WNW,292,0.0,-999.0,98,-99.99,,,0.34,Acu-Link.com,2013-01-06 18:01:00,
2013-01-06 10:16:00,41.7,41.2,30.09,SW,225,1.1,-999.0,98,-99.99,,,0.34,Acu-Link.com,2013-01-06 18:16:00,
2013-01-06 10:31:00,42.3,41.8,30.09,WNW,292,2.2,-999.0,98,-99.99,,,0.34,Acu-Link.com,2013-01-06 18:31:00,
2013-01-06 10:47:00,43.7,43.2,30.08,West,270,2.7,-999.0,98,-99.99,,,0.34,Acu-Link.com,2013-01-06 18:47:00,
2013-01-06 11:02:00,44.4,43.9,30.07,North,0,3.7,-999.0,98,-99.99,,,0.34,Acu-Link.com,2013-01-06 19:02:00,
2013-01-06 11:17:00,44.4,43.9,30.07,East,90,2.7,-999.0,98,-99.99,,,0.34,Acu-Link.com,2013-01-06 19:17:00,
2013-01-06 11:32:00,42.6,42.1,30.06,South,180,0.0,-999.0,98,-99.99,,,0.34,Acu-Link.com,2013-01-06 19:32:00,
2013-01-06 11:48:00,44.8,44.3,30.05,NE,45,0.0,-999.0,98,-99.99,,,0.34,Acu-Link.com,2013-01-06 19:48:00,
2013-01-06 12:18:00,43.5,43.0,30.05,West,270,2.7,-999.0,98,-99.99,,,0.34,Acu-Link.com,2013-01-06 20:18:00,
2013-01-06 12:33:00,44.6,44.1,30.04,West,270,1.1,-999.0,98,-99.99,,,0.34,Acu-Link.com,2013-01-06 20:33:00,
2013-01-06 12:49:00,45.1,44.6,30.04,WNW,292,1.1,-999.0,98,-99.99,,,0.34,Acu-Link.com,2013-01-06 20:49:00,
2013-01-06 13:04:00,45.5,45.0,30.03,NNW,337,1.1,-999.0,98,-99.99,,,0.34,Acu-Link.com,2013-01-06 21:04:00,
2013-01-06 13:19:00,44.6,44.1,30.03,West,270,1.1,-999.0,98,-99.99,,,0.34,Acu-Link.com,2013-01-06 21:19:00,
2013-01-06 13:34:00,45.0,44.5,30.03,NNE,22,0.0,-999.0,98,-99.99,,,0.34,Acu-Link.com,2013-01-06 21:34:00,
2013-01-06 13:49:00,45.5,45.0,30.03,East,90,2.2,-999.0,98,-99.99,,,0.34,Acu-Link.com,2013-01-06 21:49:00,
2013-01-06 14:05:00,45.1,44.6,30.04,WNW,292,2.2,-999.0,98,-99.99,,,0.34,Acu-Link.com,2013-01-06 22:05:00,
2013-01-06 14:20:00,45.0,44.5,30.04,North,0,2.2,-999.0,98,-99.99,,,0.34,Acu-Link.com,2013-01-06 22:20:00,
2013-01-06 14:35:00,44.2,43.7,30.04,West,270,1.7,-999.0,98,-99.99,,,0.34,Acu-Link.com,2013-01-06 22:35:00,
2013-01-06 14:50:00,44.1,43.6,30.04,NW,315,1.1,-999.0,98,-99.99,,,0.34,Acu-Link.com,2013-01-06 22:50:00,
2013-01-06 15:06:00,47.1,46.6,30.03,ESE,112,0.0,-999.0,98,-99.99,,,0.34,Acu-Link.com,2013-01-06 23:06:00,
2013-01-06 15:21:00,47.5,47.0,30.02,NNE,22,1.7,-999.0,98,-99.99,,,0.34,Acu-Link.com,2013-01-06 23:21:00,
2013-01-06 15:36:00,48.9,48.4,30.03,East,90,0.0,-999.0,98,-99.99,,,0.34,Acu-Link.com,2013-01-06 23:36:00,
2013-01-06 15:51:00,48.7,48.2,30.03,West,270,0.0,-999.0,98,-99.99,,,0.34,Acu-Link.com,2013-01-06 23:51:00,
2013-01-06 16:06:00,48.6,48.1,30.03,WNW,292,0.0,-999.0,98,-99.99,,,0.34,Acu-Link.com,2013-01-07 00:06:00,
2013-01-06 16:22:00,45.9,45.4,30.03,WNW,292,1.7,-999.0,98,-99.99,,,0.34,Acu-Link.com,2013-01-07 00:22:00,
2013-01-06 16:37:00,45.7,45.2,30.03,West,270,1.7,-999.0,98,-99.99,,,0.34,Acu-Link.com,2013-01-07 00:37:00,
2013-01-06 16:52:00,45.1,44.6,30.03,NW,315,0.0,-999.0,98,-99.99,,,0.34,Acu-Link.com,2013-01-07 00:52:00,
2013-01-06 17:07:00,42.3,41.8,30.03,ESE,112,1.7,-999.0,98,-99.99,,,0.34,Acu-Link.com,2013-01-07 01:07:00,
2013-01-06 17:22:00,42.4,41.9,30.03,NW,315,1.7,-999.0,98,-99.99,,,0.34,Acu-Link.com,2013-01-07 01:22:00,
2013-01-06 17:38:00,42.8,42.3,30.04,WNW,292,1.7,-999.0,98,-99.99,,,0.34,Acu-Link.com,2013-01-07 01:38:00,
2013-01-06 17:53:00,42.6,42.1,30.04,NNW,337,1.7,-999.0,98,-99.99,,,0.34,Acu-Link.com,2013-01-07 01:53:00,
2013-01-06 18:08:00,42.6,42.1,30.04,WNW,292,2.2,-999.0,98,-99.99,,,0.34,Acu-Link.com,2013-01-07 02:08:00,
2013-01-06 18:23:00,42.6,42.1,30.05,NW,315,3.7,-999.0,98,-99.99,,,0.34,Acu-Link.com,2013-01-07 02:23:00,
2013-01-06 18:38:00,41.7,41.2,30.05,NNW,337,0.0,-999.0,98,-99.99,,,0.34,Acu-Link.com,2013-01-07 02:38:00,
2013-01-06 18:54:00,42.6,42.1,30.05,West,270,1.7,-999.0,98,-99.99,,,0.34,Acu-Link.com,2013-01-07 02:54:00,
2013-01-06 19:09:00,42.6,42.1,30.05,NNE,22,1.7,-999.0,98,-99.99,,,0.34,Acu-Link.com,2013-01-07 03:09:00,
2013-01-06 19:24:00,42.3,41.8,30.06,NNW,337,0.0,-999.0,98,-99.99,,,0.34,Acu-Link.com,2013-01-07 03:24:00,
2013-01-06 19:39:00,41.7,41.2,30.05,WNW,292,0.0,-999.0,98,-99.99,,,0.34,Acu-Link.com,2013-01-07 03:39:00,
2013-01-06 19:54:00,41.5,41.0,30.05,NNE,22,0.0,-999.0,98,-99.99,,,0.34,Acu-Link.com,2013-01-07 03:54:00,
2013-01-06 20:10:00,41.0,40.5,30.06,North,0,0.0,-999.0,98,-99.99,,,0.34,Acu-Link.com,2013-01-07 04:10:00,
2013-01-06 20:25:00,40.6,40.1,30.06,NNW,337,0.0,-999.0,98,-99.99,,,0.34,Acu-Link.com,2013-01-07 04:25:00,
2013-01-06 20:40:00,40.6,40.1,30.07,NW,315,0.0,-999.0,98,-99.99,,,0.34,Acu-Link.com,2013-01-07 04:40:00,
2013-01-06 20:56:00,40.6,40.1,30.07,NNW,337,1.7,-999.0,98,-99.99,,,0.34,Acu-Link.com,2013-01-07 04:56:00,
2013-01-06 21:11:00,40.6,40.1,30.07,NNE,22,2.2,-999.0,98,-99.99,,,0.34,Acu-Link.com,2013-01-07 05:11:00,
2013-01-06 21:26:00,40.5,40.0,30.06,North,0,1.7,-999.0,98,-99.99,,,0.34,Acu-Link.com,2013-01-07 05:26:00,
2013-01-06 21:42:00,40.3,39.8,30.05,East,90,1.7,-999.0,98,-99.99,,,0.34,Acu-Link.com,2013-01-07 05:42:00,
2013-01-06 21:57:00,40.5,40.0,30.05,ESE,112,0.0,-999.0,98,-99.99,,,0.34,Acu-Link.com,2013-01-07 05:57:00,
2013-01-06 22:12:00,40.3,39.8,30.04,NNW,337,0.0,-999.0,98,-99.99,,,0.34,Acu-Link.com,2013-01-07 06:12:00,
2013-01-06 22:27:00,40.3,39.8,30.04,WNW,292,0.0,-999.0,98,-99.99,,,0.34,Acu-Link.com,2013-01-07 06:27:00,
2013-01-06 22:43:00,40.1,39.6,30.05,WNW,292,2.2,-999.0,98,-99.99,,,0.34,Acu-Link.com,2013-01-07 06:43:00,
2013-01-06 22:58:00,39.9,39.4,30.04,SW,225,2.7,-999.0,98,-99.99,,,0.34,Acu-Link.com,2013-01-07 06:58:00,
2013-01-06 23:13:00,40.1,39.6,30.04,North,0,1.1,-999.0,98,-99.99,,,0.34,Acu-Link.com,2013-01-07 07:13:00,
2013-01-06 23:29:00,39.7,39.2,30.05,North,0,0.0,-999.0,98,-99.99,,,0.34,Acu-Link.com,2013-01-07 07:29:00,
2013-01-06 23:44:00,39.7,39.2,30.05,West,270,2.2,-999.0,98,-99.99,,,0.34,Acu-Link.com,2013-01-07 07:44:00,
2013-01-06 23:59:00,39.7,39.2,30.05,North,0,2.7,-999.0,98,-99.99,,,0.34,Acu-Link.com,2013-01-07 07:59:00,